Wind_Speed
9 9 6 11 8 9 20 22 22 7 7 5 6 6 4 6 12 5 7 9 19 22 29 27 24 21 19 18 21 21 18 17 14 13 12 11 11 11 10 10 8 6 5 4 4 4 3 3 3
7 10 13 14 11 17 17 22 23 11 7 9 3 5 5 4 7 14 17 14 21 22 28 27 25 21 18 18 21 21 19 17 14 12 11 10 10 10 9 9 7 5 4 4 3 3 2 2 1
10 12 16 7 17 21 20 22 21 14 13 7 4 6 4 7 5 9 7 17 21 22 25 27 24 20 18 19 22 21 19 16 13 11 11 10 9 9 9 7 6 5 5 4 3 2 1 2 2
9 12 14 15 23 27 28 25 18 14 12 12 10 3 7 5 8 7 14 19 21 22 23 26 23 19 18 20 21 21 18 15 12 11 11 10 9 9 8 7 6 6 4 3 1 1 2 4 6
17 17 12 19 26 26 24 32 24 11 15 18 14 9 9 9 9 14 20 21 20 22 22 26 22 19 19 20 20 19 17 14 12 12 11 10 9 8 8 7 6 5 2 1 2 4 6 8 9
17 24 13 22 26 27 26 25 36 13 20 19 16 12 8 11 12 15 20 23 22 23 21 25 23 20 19 20 20 19 16 14 13 13 11 9 8 8 7 6 4 3 2 3 6 7 9 11 13
20 16 22 25 22 27 26 31 17 14 19 19 12 17 11 13 13 16 20 22 23 22 22 26 23 22 19 18 18 17 16 15 14 12 10 8 7 6 5 4 3 3 5 6 8 10 12 14 15
25 17 27 25 23 26 23 30 23 26 25 22 11 8 16 16 16 19 21 23 23 22 22 25 24 22 20 19 18 18 16 15 13 11 9 7 5 4 3 2 2 4 5 7 8 9 11 13 15
22 17 21 27 26 23 24 21 20 25 26 26 18 14 18 17 19 20 24 24 24 23 22 22 22 20 19 20 21 18 17 15 13 11 9 5 3 3 1 1 2 3 5 6 8 10 12 14 15
19 16 27 25 21 24 28 19 19 24 25 27 15 12 14 15 19 23 25 27 26 25 23 23 22 22 20 18 21 17 16 14 11 9 9 8 7 7 8 3 2 4 5 6 11 11 15 14 15
24 22 21 27 30 27 20 25 18 23 21 25 24 18 17 16 17 22 23 27 27 26 25 24 24 23 20 19 20 15 13 11 10 10 10 9 6 3 2 3 5 6 9 6 9 11 12 12 14
24 28 25 32 27 22 19 19 20 26 29 21 29 23 24 19 19 21 23 25 26 27 25 25 24 26 21 17 18 14 13 12 10 10 10 9 7 8 10 5 5 4 2 6 6 8 11 12 14
20 23 27 25 25 21 22 20 23 23 17 9 8 9 18 18 20 20 22 23 25 27 26 26 23 23 23 20 17 15 13 11 10 10 9 7 7 8 6 7 4 5 3 3 4 6 9 11 12
19 24 18 25 27 27 16 22 25 22 24 18 11 9 14 20 20 21 23 24 26 26 27 26 23 24 21 18 19 17 13 12 10 9 8 9 7 9 6 5 4 5 4 5 3 9 6 7 9
17 20 16 27 24 27 24 21 26 29 25 21 15 15 18 19 22 22 23 26 27 28 27 27 24 23 22 19 18 15 12 10 10 9 10 9 9 9 10 6 5 5 5 3 10 10 11 6 6
14 18 18 23 25 25 24 26 25 30 29 30 24 17 15 15 22 22 23 25 27 29 30 28 23 23 22 21 18 13 13 11 10 9 8 9 10 10 9 6 8 9 6 6 10 12 11 10 10
18 16 23 25 28 27 26 22 23 32 31 25 26 22 18 13 17 22 21 28 27 28 29 26 24 23 22 17 15 15 15 12 11 10 8 10 9 10 10 9 7 7 6 6 11 15 16 12 15
10 21 19 23 23 27 30 24 23 30 37 30 27 29 23 20 21 21 22 27 28 29 28 27 25 25 26 19 19 16 13 12 10 11 10 10 8 9 8 8 9 6 5 11 21 19 11 12 15
12 15 13 12 17 22 22 25 25 16 25 25 31 24 24 22 19 23 24 28 30 28 27 26 23 22 24 22 20 17 15 14 12 12 9 8 7 7 6 2 6 12 10 15 17 14 14 13 18
13 13 16 14 10 7 15 23 26 25 20 23 27 29 30 24 23 22 25 30 31 32 27 25 23 26 23 22 20 18 17 16 11 10 11 11 13 11 9 8 9 16 13 14 13 12 11 10 14
14 17 16 17 11 16 15 18 22 26 25 28 24 30 26 26 27 26 30 29 30 29 29 27 27 27 23 22 22 23 22 15 14 11 7 10 6 10 10 13 16 13 6 7 6 7 9 9 10
15 15 13 14 11 13 20 12 23 25 25 24 28 25 29 28 28 31 31 27 30 30 28 28 28 27 24 25 19 23 17 13 11 14 12 8 4 2 1 1 3 2 3 4 6 8 9 10 11
14 7 11 15 15 16 17 12 17 28 25 26 25 31 26 30 32 33 36 18 30 32 29 29 29 27 24 22 18 16 13 11 12 16 13 4 3 3 4 5 3 2 3 5 7 8 9 10 8
12 11 14 14 14 13 19 13 18 25 29 27 27 36 32 32 34 34 36 46 36 32 29 25 29 28 24 19 16 15 11 17 14 8 7 6 5 6 5 3 4 6 7 8 9 10 9 9 6
11 15 10 10 11 13 19 13 21 22 27 30 29 37 37 34 35 36 41 40 34 32 33 29 27 23 22 20 14 12 16 15 10 11 10 9 8 4 3 4 5 6 7 8 8 7 8 8 9
11 15 9 6 10 13 17 16 16 18 11 34 36 39 37 37 37 35 39 39 36 34 33 32 25 23 21 19 18 16 10 14 14 13 11 10 7 4 3 4 4 6 6 6 7 7 8 10 11
16 15 14 8 16 11 12 11 17 15 14 24 30 39 36 37 34 38 41 39 34 33 31 30 30 26 24 23 20 19 16 15 15 14 11 9 6 4 3 2 4 4 4 6 8 8 9 10 11
16 10 10 8 10 13 14 21 11 18 15 14 25 31 38 36 33 42 42 42 36 35 33 30 28 28 27 23 21 19 16 14 13 12 10 7 6 2 2 3 4 5 6 7 9 8 9 10 8
12 15 15 14 12 10 12 12 15 16 19 19 23 37 40 36 42 38 38 49 42 35 33 33 31 30 26 23 21 18 17 15 12 11 9 7 4 3 4 6 6 7 6 7 8 9 8 9 10
10 16 18 11 17 13 16 15 5 18 20 18 24 38 41 40 40 34 29 38 41 37 35 33 32 29 26 24 22 20 17 13 12 10 8 6 6 6 7 8 7 6 6 7 8 8 8 8 8
Wind_Direction
230 216 236 237 237 231 245 237 248 239 253 237 35 160 273 16 354 62 139 141 153 161 168 162 162 161 162 165 173 171 165 161 153 143 137 142 148 153 156 158 153 150 146 135 130 130 128 122 129
193 221 219 245 234 239 234 242 226 218 194 112 202 231 192 90 38 117 163 151 153 159 165 165 163 162 163 164 174 171 169 165 155 148 145 151 154 154 160 166 161 155 149 147 142 141 128 143 189
191 204 219 224 230 237 244 219 241 188 210 179 186 234 181 93 112 148 154 154 155 156 158 167 162 164 164 167 174 172 173 168 159 155 153 154 153 156 162 162 156 148 153 146 136 126 180 232 264
208 204 241 245 233 227 245 259 208 207 181 200 239 238 115 91 135 173 147 153 158 156 157 163 161 164 166 172 177 175 174 170 168 165 158 153 153 155 153 152 150 152 153 149 152 252 291 295 295
212 223 227 231 237 245 224 247 266 209 217 202 194 235 116 137 139 143 149 156 156 157 163 164 163 163 169 174 179 179 177 178 176 169 160 156 154 151 148 148 153 158 164 266 309 308 298 294 294
213 227 229 230 234 237 244 233 246 221 241 213 160 225 105 147 150 150 154 157 158 160 163 164 165 164 169 175 179 182 181 181 174 170 163 160 157 157 157 161 169 187 245 283 294 295 297 299 300
230 218 234 244 235 237 227 239 238 236 245 227 197 191 147 166 166 160 158 158 161 163 158 165 166 165 168 176 179 181 182 177 172 171 166 163 163 165 169 185 209 246 271 279 289 299 302 301 303
233 252 244 240 243 249 226 227 205 238 240 242 182 223 184 160 163 165 163 161 163 165 163 162 167 164 166 170 176 177 175 173 171 172 168 162 162 168 171 192 227 268 279 293 303 304 306 308 311
227 246 241 242 237 247 249 209 222 233 243 235 184 235 114 147 159 162 164 166 168 165 166 161 160 160 158 164 170 170 172 172 170 169 164 147 127 145 47 207 279 294 307 313 321 322 321 324 328
230 234 243 246 251 249 246 241 209 226 226 238 222 158 124 149 164 169 171 172 173 170 167 168 164 161 159 157 165 168 172 171 164 166 156 120 170 170 177 258 312 312 318 333 342 336 343 347 340
216 241 255 251 259 265 250 246 221 238 223 220 218 190 167 168 174 178 180 177 177 175 171 170 169 159 160 166 154 166 169 169 172 173 154 172 178 190 142 267 337 3 332 2 331 330 335 313 320
238 240 243 266 266 264 271 249 215 231 230 220 223 224 176 177 182 183 181 180 176 174 172 170 172 165 163 168 154 167 166 175 179 181 175 195 164 221 188 211 225 314 291 302 330 329 322 323 317
235 252 238 251 258 270 243 258 263 231 225 204 133 182 171 185 188 188 185 183 178 174 174 174 175 170 168 161 163 166 172 170 175 182 176 193 183 203 208 223 219 238 264 302 308 326 308 318 323
262 248 253 251 240 251 244 243 247 242 218 215 178 206 202 189 197 190 189 185 181 174 172 173 173 173 174 163 168 167 167 172 174 177 196 191 179 221 206 234 225 234 236 254 273 253 260 285 319
261 266 249 238 235 241 234 242 237 231 229 227 203 212 206 202 194 193 192 185 183 178 177 174 175 176 176 169 165 165 170 181 182 188 199 183 178 220 182 207 205 216 236 263 275 284 296 283 302
255 247 249 235 234 237 233 240 228 233 224 212 202 201 197 204 197 191 188 184 178 171 174 174 175 183 172 182 165 164 183 180 191 196 204 190 195 185 170 193 207 230 243 280 305 306 293 307 332
227 243 231 247 210 223 224 234 252 212 224 222 200 209 200 202 192 183 180 181 180 181 179 173 175 177 171 176 167 167 191 180 189 190 195 185 186 195 192 209 231 261 280 302 312 314 320 319 326
252 222 243 224 227 207 225 224 245 224 207 218 217 213 207 197 187 180 176 182 180 179 176 168 176 183 162 169 168 175 174 180 182 183 196 198 202 212 236 239 265 272 290 292 304 301 305 334 330
281 287 252 242 218 205 221 225 224 237 219 213 210 213 209 196 183 168 173 175 175 172 170 169 171 172 165 163 171 173 174 175 181 183 180 190 200 209 220 211 242 243 277 306 312 305 302 340 346
281 271 267 279 267 225 236 219 230 215 231 212 212 208 203 186 188 165 171 173 175 170 170 164 170 166 165 166 171 173 172 184 169 167 170 179 208 208 222 236 276 272 293 308 313 317 335 20 15
243 254 257 263 239 231 248 236 224 225 214 225 213 205 195 193 180 182 172 169 172 169 167 166 168 164 158 165 174 170 179 184 171 178 189 227 242 242 270 279 274 291 303 314 321 352 355 24 28
256 229 260 285 268 242 204 231 215 213 214 214 210 211 196 198 182 174 169 171 174 170 167 163 163 156 162 166 177 185 176 178 190 174 216 226 214 269 266 310 1 77 63 12 358 4 13 12 29
268 355 275 246 245 258 230 223 219 198 206 210 207 203 205 195 187 166 150 186 177 172 162 165 161 157 169 160 174 172 174 174 152 197 216 194 174 150 136 121 87 53 32 23 17 10 10 4 36
269 275 248 248 244 233 242 213 225 182 201 203 202 195 196 196 179 168 165 176 172 163 150 162 159 163 163 165 175 167 170 180 198 181 152 139 144 137 121 91 56 49 37 25 15 1 357 23 46
230 252 241 213 215 236 202 228 253 175 197 200 194 189 190 190 177 165 174 167 164 157 153 165 157 157 156 166 161 158 176 195 180 137 140 128 124 130 100 64 57 31 15 7 355 10 40 56 62
233 242 254 295 199 222 231 203 228 249 223 200 195 184 189 182 176 175 170 160 163 161 159 155 154 154 152 150 154 172 160 132 137 134 135 135 125 121 84 54 22 2 1 13 51 58 61 65 54
229 233 263 302 272 269 196 211 217 234 226 191 195 178 188 181 170 177 170 162 165 161 154 147 153 153 142 151 146 134 139 139 150 143 140 129 108 88 89 17 355 8 35 74 65 68 66 62 57
234 285 244 234 274 250 241 195 224 195 211 221 198 176 181 173 169 171 170 167 163 156 150 151 150 147 141 140 134 140 151 151 141 149 157 162 157 156 42 26 33 61 82 89 81 60 69 65 63
200 230 235 258 253 277 256 224 197 195 202 201 205 179 176 163 172 176 167 155 157 151 152 145 144 138 139 136 144 143 142 147 155 163 168 162 154 98 75 78 77 77 79 88 89 76 68 62 54
261 220 228 230 229 257 275 280 294 205 184 208 212 180 172 168 177 171 174 160 138 151 143 140 138 137 142 141 143 144 148 157 162 153 145 131 114 102 99 90 84 81 86 94 86 87 73 64 55
Height
1498 1502 1505 1505 1502 1483 1472 1458 1443 1438 1445 1448 1452 1458 1458 1460 1459 1484 1486 1482 1479 1484 1486 1491 1495 1499 1503 1507 1510 1514 1517 1520 1522 1524 1526 1528 1530 1532 1534 1536 1537 1538 1539 1539 1540 1540 1541 1541 1541
1499 1503 1504 1497 1492 1480 1462 1446 1442 1437 1444 1453 1459 1462 1463 1462 1465 1480 1484 1485 1480 1483 1487 1492 1496 1501 1505 1508 1512 1515 1518 1521 1523 1525 1527 1530 1531 1533 1535 1537 1538 1539 1540 1541 1541 1542 1542 1542 1541
1495 1500 1499 1487 1477 1472 1457 1436 1438 1438 1446 1454 1456 1461 1457 1467 1470 1476 1481 1481 1481 1485 1489 1493 1497 1502 1506 1509 1513 1516 1520 1522 1524 1526 1528 1531 1533 1534 1536 1538 1539 1540 1541 1542 1542 1542 1542 1541 1541
1497 1499 1495 1475 1464 1457 1451 1432 1429 1436 1443 1454 1455 1456 1463 1470 1472 1474 1476 1480 1483 1488 1492 1494 1498 1503 1508 1511 1515 1518 1521 1524 1526 1528 1530 1532 1534 1535 1537 1539 1540 1541 1542 1543 1543 1543 1543 1542 1541
1494 1487 1479 1469 1460 1449 1443 1442 1433 1438 1440 1451 1456 1454 1460 1471 1473 1474 1477 1482 1486 1490 1493 1495 1500 1504 1509 1513 1517 1520 1522 1525 1527 1529 1531 1533 1535 1536 1538 1540 1541 1542 1543 1544 1544 1544 1543 1542 1540
1488 1482 1467 1464 1452 1447 1442 1439 1438 1442 1440 1443 1449 1457 1460 1470 1474 1475 1478 1482 1488 1493 1494 1496 1501 1506 1510 1514 1517 1521 1523 1526 1528 1530 1532 1534 1536 1538 1539 1541 1542 1543 1544 1544 1544 1543 1543 1542 1541
1479 1469 1460 1452 1443 1440 1440 1442 1440 1444 1443 1441 1448 1453 1461 1469 1473 1476 1479 1484 1489 1494 1495 1497 1502 1505 1510 1515 1518 1521 1524 1526 1528 1531 1533 1535 1537 1539 1540 1541 1542 1543 1544 1543 1543 1543 1542 1541 1540
1479 1469 1456 1448 1445 1437 1432 1439 1444 1448 1447 1443 1445 1450 1457 1465 1472 1476 1481 1485 1490 1493 1496 1497 1502 1506 1510 1515 1518 1522 1525 1527 1529 1532 1534 1536 1538 1539 1540 1541 1542 1543 1542 1543 1542 1542 1541 1540 1539
1478 1469 1457 1447 1443 1438 1431 1432 1442 1450 1447 1443 1447 1454 1458 1466 1471 1476 1480 1485 1490 1494 1496 1501 1504 1508 1512 1514 1518 1522 1525 1528 1530 1533 1535 1537 1538 1540 1541 1541 1542 1542 1542 1542 1542 1541 1541 1540 1539
1470 1464 1454 1446 1439 1435 1432 1433 1441 1446 1445 1444 1447 1453 1461 1467 1471 1473 1478 1482 1488 1493 1497 1502 1506 1510 1513 1516 1518 1522 1525 1528 1530 1533 1535 1538 1542 1542 1544 1542 1541 1542 1542 1542 1541 1540 1540 1540 1539
1465 1462 1453 1448 1442 1436 1431 1433 1440 1442 1440 1443 1447 1449 1459 1467 1470 1472 1476 1479 1485 1492 1497 1501 1506 1510 1514 1517 1519 1524 1527 1530 1533 1535 1535 1540 1541 1540 1542 1543 1541 1542 1541 1543 1541 1541 1540 1541 1540
1462 1458 1458 1453 1446 1442 1439 1438 1435 1441 1438 1441 1445 1446 1452 1463 1468 1470 1474 1478 1483 1489 1496 1500 1505 1509 1513 1515 1520 1524 1528 1531 1533 1534 1535 1537 1538 1539 1540 1543 1543 1542 1543 1541 1542 1542 1540 1540 1539
1457 1457 1456 1455 1451 1448 1448 1445 1440 1438 1440 1439 1442 1447 1449 1458 1464 1468 1472 1477 1482 1488 1495 1500 1503 1508 1512 1515 1520 1524 1528 1531 1533 1533 1533 1537 1538 1538 1540 1540 1540 1539 1540 1540 1539 1539 1537 1537 1536
1455 1454 1453 1453 1453 1452 1448 1448 1445 1439 1442 1439 1444 1448 1449 1456 1461 1465 1470 1475 1481 1487 1492 1498 1502 1506 1511 1515 1518 1522 1526 1530 1532 1533 1533 1534 1535 1535 1538 1538 1538 1538 1536 1535 1534 1532 1531 1531 1532
1459 1455 1454 1453 1450 1449 1451 1449 1441 1443 1440 1438 1443 1447 1449 1450 1457 1462 1467 1473 1480 1485 1491 1496 1501 1505 1508 1512 1515 1520 1525 1529 1531 1532 1531 1532 1532 1533 1534 1537 1536 1535 1533 1533 1533 1533 1529 1526 1522
1458 1455 1452 1444 1446 1446 1447 1439 1437 1440 1437 1437 1440 1445 1449 1449 1451 1458 1464 1472 1477 1482 1487 1493 1498 1503 1505 1508 1514 1520 1523 1527 1530 1530 1531 1530 1530 1531 1531 1534 1534 1531 1531 1532 1531 1530 1529 1529 1523
1449 1450 1445 1439 1433 1442 1439 1436 1429 1432 1432 1431 1436 1442 1445 1447 1450 1456 1462 1468 1473 1479 1486 1491 1497 1500 1505 1508 1514 1519 1521 1525 1528 1529 1531 1529 1530 1530 1531 1531 1532 1532 1532 1533 1531 1529 1528 1527 1520
1436 1432 1431 1426 1423 1426 1429 1431 1422 1424 1425 1430 1433 1436 1440 1445 1450 1454 1459 1467 1472 1477 1483 1489 1493 1498 1502 1506 1513 1517 1519 1524 1526 1528 1530 1528 1530 1529 1530 1531 1530 1531 1532 1530 1528 1527 1527 1524 1519
1448 1432 1423 1413 1413 1417 1421 1424 1424 1417 1419 1420 1425 1431 1435 1440 1446 1452 1459 1465 1470 1475 1481 1485 1490 1494 1501 1503 1513 1515 1518 1522 1525 1525 1527 1527 1528 1528 1528 1530 1528 1528 1527 1527 1525 1525 1523 1521 1515
1443 1440 1435 1422 1415 1418 1416 1419 1417 1417 1418 1418 1421 1426 1430 1436 1445 1451 1456 1463 1466 1472 1478 1482 1488 1493 1498 1505 1511 1515 1518 1520 1524 1525 1524 1524 1523 1525 1526 1527 1527 1527 1526 1524 1524 1523 1522 1518 1515
1447 1447 1438 1429 1421 1425 1423 1420 1414 1411 1412 1416 1414 1419 1425 1430 1441 1448 1454 1459 1465 1470 1474 1479 1485 1491 1498 1505 1510 1512 1514 1518 1522 1522 1522 1522 1523 1523 1524 1525 1524 1523 1525 1522 1522 1521 1520 1518 1517
1443 1435 1434 1433 1432 1425 1417 1418 1408 1404 1406 1408 1412 1415 1420 1427 1436 1443 1452 1461 1468 1469 1474 1476 1481 1489 1499 1504 1508 1511 1514 1517 1520 1520 1520 1521 1521 1523 1523 1522 1523 1522 1521 1521 1520 1520 1520 1518 1517
1443 1437 1438 1436 1431 1423 1401 1412 1375 1394 1400 1402 1405 1412 1416 1421 1429 1437 1447 1454 1462 1472 1470 1474 1478 1488 1496 1501 1506 1509 1513 1515 1517 1517 1519 1519 1521 1523 1523 1523 1523 1522 1521 1520 1520 1520 1519 1515 1519
1448 1441 1438 1431 1424 1423 1401 1399 1380 1380 1388 1391 1398 1405 1414 1415 1422 1433 1449 1459 1465 1465 1464 1478 1478 1485 1491 1499 1504 1507 1512 1511 1514 1516 1519 1520 1521 1522 1522 1523 1522 1521 1520 1520 1520 1519 1518 1518 1519
1444 1441 1432 1429 1421 1413 1390 1396 1374 1360 1372 1377 1385 1395 1407 1410 1417 1427 1440 1447 1453 1456 1461 1479 1479 1485 1488 1496 1502 1506 1508 1508 1514 1516 1520 1521 1523 1522 1521 1521 1521 1521 1520 1520 1520 1520 1520 1520 1520
1431 1431 1424 1433 1408 1392 1378 1392 1377 1365 1365 1372 1380 1390 1401 1405 1412 1422 1432 1440 1450 1457 1463 1467 1474 1483 1489 1494 1501 1502 1508 1512 1516 1517 1521 1522 1521 1521 1521 1521 1521 1520 1520 1521 1521 1521 1522 1521 1522
1431 1431 1418 1438 1402 1395 1371 1374 1369 1365 1368 1367 1374 1385 1395 1401 1409 1421 1429 1433 1446 1454 1456 1461 1475 1482 1484 1494 1497 1504 1509 1513 1513 1514 1518 1519 1521 1522 1522 1521 1521 1520 1521 1522 1523 1523 1523 1523 1524
1428 1431 1430 1424 1423 1404 1376 1373 1377 1374 1371 1368 1369 1378 1390 1399 1410 1417 1430 1429 1443 1453 1455 1462 1471 1479 1484 1493 1497 1503 1507 1511 1513 1515 1517 1519 1521 1522 1521 1521 1521 1521 1522 1523 1525 1526 1524 1525 1525
1427 1426 1423 1415 1409 1402 1391 1371 1355 1361 1371 1372 1369 1375 1386 1398 1406 1415 1427 1440 1449 1454 1459 1460 1469 1475 1485 1491 1497 1503 1508 1511 1514 1516 1517 1519 1520 1520 1521 1521 1523 1523 1524 1524 1526 1526 1527 1527 1527
1421 1418 1419 1424 1418 1405 1395 1378 1349 1356 1362 1369 1368 1372 1383 1396 1402 1417 1428 1443 1432 1454 1456 1461 1468 1476 1486 1492 1498 1504 1508 1511 1514 1515 1517 1519 1520 1520 1522 1522 1524 1526 1525 1526 1528 1529 1529 1530 1530